Regional Weather Roundup
Issued by NWS Tampa Bay Area, FL

Current Version | Previous Version | Text Only | Print | Product List | Glossary On
Versions: 1 2 3 4 5 6 7 8 9 10 11 12 13 14 15 16 17 18 19 20 21 22 23 24 25 26 27 28 29 30 31 32 33 34 35 36 37 38 39 40 41 42 43 44
000
NZUS99 KTBW 130519
RWRTBW
Regional Weather Roundup National Weather Service Ruskin Florida
100 AM EDT MON JUL 13 2020


CITY           SKY/WX    TMP DP  RH WIND       PRES   REMARKS
Cross City     CLEAR     76  73  91 S6        29.88F
Gainesville    CLEAR     79  71  76 SW8       29.91F
Ocala          CLEAR     74  71  91 CALM      29.91F
Crystal River  FAIR      72  68  88 CALM      29.91S
Inverness      FAIR      72  72 100 CALM      29.91F
Leesburg       PTCLDY    80  71  74 W5        29.91F
Orlando        MOCLDY    79  73  82 SW5       29.92S
Brooksville    PTCLDY    74  71  91 CALM      29.92F
Zephyrhills      N/A     75  72  91 CALM      29.92F
Lakeland       MOCLDY    79  75  89 CALM      29.93S
Winter Haven   PTCLDY    79  76  90 S3        29.93F
Bartow         FAIR      77  75  94 S3        29.92S

CITY           SKY/WX    TMP DP  RH WIND       PRES   REMARKS
Tampa Intl     MOCLDY    85  73  67 W9        29.92F
Tampa Exec     PTCLDY    77  77 100 CALM      29.92F
MacDill AFB    PTCLDY    83  76  77 W7        29.91F
Peter O Knight CLOUDY    84  81  89 W3        29.91F HX  98
Plant City     PTCLDY    79  79 100 CALM      29.94S
Clearwater     PTCLDY    83  77  82 W6        29.92S
St Petersburg  PTCLDY    85  78  80 W6        29.90F HX  96
Sarasota       PTCLDY    86  76  71 W8        29.91S HX  96
Sebring        FAIR      77  75  92 S7        29.94S
Punta Gorda    PTCLDY    80  79  96 S5        29.94F
Ft Myers       PTCLDY    79  77  94 SE5       29.94S
Ft Myers-RSW   PTCLDY    79  77  94 E3        29.95R
Naples         PTCLDY    83  80  91 SW7       29.94F HX  95

STATION/POSITION SKY/WX   TEMP WIND        PRES    VSBY
                          AIR  DIR/SP/G
                          (F)  (DEG/KT/KT) (MB)    (MI)
Keaton Beach               84  260/ 14/ 16 1011.3F
Sand Key                   84  230/  7/ 10 1015.7
039 Panama City                260/  8/ 10 1013.3
036 Bayport                    260/  8/  8 1014.0R
003 Captiva                    270/  8/ 10 1014.7
Venice                     85  260/ 10/ 11 1013.5S
Cedar Key                  84  270/ 10/ 14 1012.7F

CITY           SKY/WX    TMP DP  RH WIND       PRES   REMARKS
Tallahassee    MOCLDY    80  68  66 W12       29.85R
Daytona Beach  PTCLDY    75  74  96 SW3       29.90S
Melbourne      PTCLDY    78  75  90 SW10      29.91F
W Palm Beach   PTCLDY    78  73  84 S7        29.96S
Miami          CLOUDY    81  72  74 S6        29.97F
Key West       PTCLDY    85  74  69 SW8       29.98S
San Juan, PR   PTCLDY    82  77  83 E8        30.03F
Cancun, MX     PTCLDY    81  79  94 CALM      30.02S




USA.gov is the U.S. government's official web portal to all federal, state and local government web resources and services.